Tracking 25378 objects as of 22-Jan-2022
HD Live streaming from Space Station
objects crossing your sky now

STARLINK-1809

Track STARLINK-1809 now!
10-day predictions
STARLINK-1809 is classified as:


NORAD ID: 46708
Int'l Code: 2020-073AQ
Perigee: 394.3 km
Apogee: 395.6 km
Inclination: 53.1 °
Period: 92.3 minutes
Semi major axis: 6765 km
RCS: Unknown
Launch date: October 18, 2020
Source: United States (US)
Launch site: AIR FORCE EASTERN TEST RANGE (AFETR)
aabbcc
Your satellite tracking list
Your tracking list is empty




NASA's NSSDC Master Catalog

Two Line Element Set (TLE):
1 46708U 20073AQ  22021.81389716  .00472834  00000-0  54309-2 0  9998
2 46708  53.0535 114.3954 0000908  87.6390 272.4726 15.59943499 71135
Source of the keplerian elements: AFSPC